Flag for Philippines Weather past 2 weeks in Mabalacat, Philippines

Now
75 °F

Overcast.


Feels Like: 73 °F
Forecast: 77 / 87 °F
Wind: 5 mph from Northwest

Location: Clarkfield Pampanga International Airport

Current Time: Sep 5, 2015 at 3:32:24 AM

Latest Report: Sep 5, 2015 at 3:00 AM


Visibility: N/A

Pressure: 29.89 "Hg

Humidity: 100%

Dew point: 75 °F

Location of MabalacatLocation

Historic Weather in Mabalacat — Graph

°F

Mabalacat temperature yesterday

Maximum temperature yesterday: 91 °F (at 1:00 PM)
Minimum temperature yesterday: 73 °F (at 11:00 PM)
Average temperature yesterday: 82 °F

Past Weeks' High & Low Weather Summary

 TemperatureHumidityPressure
High91 °F (Sep 4, 1:00 PM)100% (Aug 21, 5:00 AM)30.01 "Hg (Aug 21, 5:00 AM)
Low72 °F (Aug 31, 5:00 AM)52% (Sep 4, 1:00 PM)29.53 "Hg (Aug 21, 4:00 PM)
Average79 °F89%29.83 "Hg
* Reported Aug 21 2:00 AM — Sep 5 2:00 AM, Mabalacat, Weather by CustomWeather, © 2015

Note: Actual official high and low records may vary slightly from our data, if they occured in-between our weather recording intervals... More about our weather records

Advertising

Mabalacat weather history for previous 24 hours

 ConditionsComfort  
Time TempWeatherWind HumidityBarometerVisibility
2:00 AM
Sat, Sep 5
73 °FOvercast.2 mph100%29.92 "HgN/A
1:00 AM75 °FOvercast.2 mph100%29.92 "HgN/A
12:00 AM75 °FLight rain. Mostly cloudy.2 mph100%29.92 "Hg6 mi
11:00 PM
Fri, Sep 4
73 °FThunderstorms. Mostly cloudy.2 mph100%29.98 "Hg6 mi
10:00 PM75 °FThunderstorms. Mostly cloudy.7 mph94%29.95 "Hg6 mi
9:00 PM77 °FThunderstorms. Partly cloudy.6 mph89%29.95 "HgN/A
8:00 PM82 °FThunderstorms. Partly cloudy.5 mph94%29.92 "HgN/A
7:00 PM82 °FPartly cloudy.6 mph94%29.89 "HgN/A
6:00 PM84 °FBroken clouds.3 mph79%29.89 "HgN/A
5:00 PM86 °FBroken clouds.3 mph75%29.86 "HgN/A
4:00 PM90 °FBroken clouds.3 mph63%29.83 "HgN/A
3:00 PM88 °FBroken clouds.5 mph62%29.83 "HgN/A
2:00 PM90 °FBroken clouds.5 mph55%29.86 "HgN/A
1:00 PM91 °FBroken clouds.3 mph52%29.89 "HgN/A
12:00 PM90 °FPartly sunny.3 mph59%29.92 "HgN/A
11:00 AM88 °FBroken clouds.2 mph66%29.95 "HgN/A
10:00 AM84 °FBroken clouds.2 mph79%29.95 "Hg5 mi
9:00 AM86 °FScattered clouds.1 mph75%29.95 "HgN/A
8:00 AM82 °FScattered clouds.3 mph84%29.95 "HgN/A
7:00 AM77 °FScattered clouds.1 mph100%29.95 "Hg5 mi
6:00 AM75 °FPartly sunny.1 mph100%29.92 "Hg5 mi
5:00 AM75 °FPassing clouds.1 mph100%29.92 "Hg5 mi
4:00 AM75 °FPassing clouds.2 mph100%29.92 "Hg4 mi
3:00 AM77 °FPassing clouds.1 mph100%29.95 "HgN/A
Weather by CustomWeather, © 2015

See weather overviewHow to use our weather pages